TimeCST,TemperatureF,Dew PointF,Humidity,Sea Level PressureIn,VisibilityMPH,Wind Direction,Wind SpeedMPH,Gust SpeedMPH,PrecipitationIn,Events,Conditions,WindDirDegrees,DateUTC
12:15 AM,41.9,23.0,47,29.40,10.0,North,4.6,-,N/A,,Overcast,360,2013-11-17 06:15:00
12:35 AM,41.2,23.7,50,29.39,10.0,North,3.5,-,N/A,,Scattered Clouds,10,2013-11-17 06:35:00
12:55 AM,42.3,23.9,48,29.39,10.0,North,5.8,-,N/A,,Mostly Cloudy,360,2013-11-17 06:55:00
1:15 AM,43.2,25.0,49,29.39,10.0,NNW,5.8,-,N/A,,Overcast,330,2013-11-17 07:15:00
1:35 AM,42.6,25.3,51,29.39,10.0,Calm,Calm,-,N/A,,Overcast,0,2013-11-17 07:35:00
1:55 AM,42.6,24.6,49,29.38,10.0,Calm,Calm,-,N/A,,Overcast,0,2013-11-17 07:55:00
2:15 AM,41.0,26.8,57,29.38,10.0,NW,5.8,-,N/A,,Overcast,320,2013-11-17 08:15:00
2:35 AM,41.2,26.1,55,29.38,10.0,NW,3.5,-,N/A,,Overcast,320,2013-11-17 08:35:00
2:55 AM,40.5,27.1,59,29.39,10.0,Calm,Calm,-,N/A,,Overcast,0,2013-11-17 08:55:00
3:15 AM,40.1,28.4,63,29.38,10.0,Calm,Calm,-,N/A,,Overcast,0,2013-11-17 09:15:00
3:35 AM,39.2,28.9,67,29.39,10.0,Calm,Calm,-,N/A,,Mostly Cloudy,0,2013-11-17 09:35:00
3:55 AM,38.5,28.8,68,29.40,10.0,Calm,Calm,-,N/A,,Scattered Clouds,0,2013-11-17 09:55:00
4:15 AM,38.3,28.6,68,29.41,10.0,Calm,Calm,-,N/A,,Clear,0,2013-11-17 10:15:00
4:35 AM,38.8,28.0,65,29.41,10.0,Calm,Calm,-,N/A,,Clear,0,2013-11-17 10:35:00
4:55 AM,36.9,29.1,74,29.41,10.0,Calm,Calm,-,N/A,,Clear,0,2013-11-17 10:55:00
5:15 AM,36.7,28.0,71,29.41,10.0,Calm,Calm,-,N/A,,Clear,0,2013-11-17 11:15:00
5:35 AM,36.9,28.0,70,29.41,10.0,NNW,3.5,-,N/A,,Clear,340,2013-11-17 11:35:00
5:55 AM,36.0,28.2,73,29.42,10.0,WNW,3.5,-,N/A,,Clear,300,2013-11-17 11:55:00
6:15 AM,35.6,28.0,74,29.42,10.0,NW,4.6,-,N/A,,Clear,310,2013-11-17 12:15:00
6:35 AM,32.9,27.5,81,29.43,10.0,NNW,6.9,-,N/A,,Clear,330,2013-11-17 12:35:00
6:55 AM,32.2,27.1,82,29.43,10.0,NW,5.8,-,N/A,,Clear,320,2013-11-17 12:55:00
7:15 AM,31.3,26.6,83,29.44,10.0,NNW,4.6,-,N/A,,Clear,330,2013-11-17 13:15:00
7:35 AM,29.8,25.7,85,29.45,10.0,NNW,8.1,-,N/A,,Clear,330,2013-11-17 13:35:00
7:55 AM,30.7,26.6,85,29.46,10.0,NW,5.8,-,N/A,,Clear,320,2013-11-17 13:55:00
8:15 AM,32.5,28.4,85,29.48,10.0,NNW,5.8,-,N/A,,Scattered Clouds,330,2013-11-17 14:15:00
8:35 AM,35.2,30.4,82,29.49,10.0,NW,5.8,-,N/A,,Scattered Clouds,310,2013-11-17 14:35:00
8:55 AM,37.8,32.0,80,29.50,10.0,NW,4.6,-,N/A,,Mostly Cloudy,310,2013-11-17 14:55:00
9:15 AM,36.9,31.8,82,29.52,10.0,NNW,3.5,-,N/A,,Scattered Clouds,330,2013-11-17 15:15:00
9:35 AM,40.1,33.3,77,29.54,10.0,NNW,5.8,-,N/A,,Clear,340,2013-11-17 15:35:00
9:55 AM,41.2,34.0,76,29.55,10.0,NW,4.6,-,N/A,,Scattered Clouds,320,2013-11-17 15:55:00
10:15 AM,43.7,34.5,70,29.57,10.0,NNW,4.6,-,N/A,,Scattered Clouds,330,2013-11-17 16:15:00
10:35 AM,44.2,34.2,68,29.59,10.0,NNW,4.6,-,N/A,,Mostly Cloudy,330,2013-11-17 16:35:00
10:55 AM,44.4,34.2,67,29.61,10.0,NNW,6.9,-,N/A,,Mostly Cloudy,330,2013-11-17 16:55:00
11:15 AM,46.0,34.9,65,29.62,10.0,NW,6.9,-,N/A,,Clear,320,2013-11-17 17:15:00
11:35 AM,46.8,34.9,63,29.63,10.0,NW,5.8,-,N/A,,Mostly Cloudy,320,2013-11-17 17:35:00
11:55 AM,49.8,33.8,54,29.64,10.0,NNW,9.2,-,N/A,,Overcast,330,2013-11-17 17:55:00
12:15 PM,49.1,33.8,56,29.66,10.0,NNW,9.2,-,N/A,,Mostly Cloudy,330,2013-11-17 18:15:00
12:35 PM,49.8,32.4,51,29.67,10.0,WNW,10.4,-,N/A,,Scattered Clouds,300,2013-11-17 18:35:00
12:55 PM,50.2,32.7,51,29.69,10.0,WNW,12.7,-,N/A,,Scattered Clouds,300,2013-11-17 18:55:00
1:15 PM,52.0,33.6,50,29.70,10.0,NW,16.1,19.6,N/A,,Mostly Cloudy,310,2013-11-17 19:15:00
1:35 PM,49.8,32.7,52,29.72,10.0,WNW,20.7,-,N/A,,Mostly Cloudy,290,2013-11-17 19:35:00
1:55 PM,51.1,31.6,47,29.73,10.0,WNW,20.7,24.2,N/A,,Scattered Clouds,300,2013-11-17 19:55:00
2:15 PM,49.1,29.3,46,29.74,10.0,WNW,23.0,29.9,N/A,,Scattered Clouds,300,2013-11-17 20:15:00
2:35 PM,50.2,29.7,45,29.75,10.0,NW,21.9,32.2,N/A,,Clear,310,2013-11-17 20:35:00
2:55 PM,49.3,31.1,50,29.77,10.0,WNW,25.3,33.4,N/A,,Clear,290,2013-11-17 20:55:00
3:15 PM,47.7,31.6,54,29.79,10.0,WNW,25.3,31.1,N/A,,Scattered Clouds,290,2013-11-17 21:15:00
3:35 PM,46.6,32.0,57,29.82,10.0,WNW,24.2,29.9,N/A,,Scattered Clouds,300,2013-11-17 21:35:00
3:55 PM,44.2,32.9,64,29.84,10.0,WNW,19.6,29.9,N/A,,Overcast,300,2013-11-17 21:55:00
4:15 PM,43.3,33.4,68,29.86,10.0,WNW,25.3,31.1,N/A,,Overcast,300,2013-11-17 22:15:00
4:35 PM,41.0,34.3,77,29.87,10.0,NW,17.3,-,N/A,,Light Drizzle,310,2013-11-17 22:35:00
4:55 PM,41.2,34.7,78,29.87,10.0,NW,17.3,23.0,N/A,,Overcast,310,2013-11-17 22:55:00
5:15 PM,41.0,33.1,73,29.90,10.0,WNW,19.6,25.3,N/A,,Overcast,300,2013-11-17 23:15:00
5:35 PM,39.0,32.0,76,29.91,10.0,WNW,11.5,-,N/A,,Scattered Clouds,300,2013-11-17 23:35:00
5:55 PM,37.2,32.0,81,29.93,10.0,WNW,6.9,-,N/A,,Clear,290,2013-11-17 23:55:00
6:15 PM,36.0,31.8,85,29.93,10.0,WNW,9.2,-,N/A,,Clear,290,2013-11-18 00:15:00
6:35 PM,35.8,31.8,86,29.95,10.0,West,6.9,-,N/A,,Clear,280,2013-11-18 00:35:00
6:55 PM,32.9,29.8,88,29.96,10.0,West,9.2,-,N/A,,Clear,260,2013-11-18 00:55:00
7:15 PM,33.3,29.8,87,29.97,10.0,West,9.2,-,N/A,,Clear,270,2013-11-18 01:15:00
7:35 PM,33.8,30.2,87,29.98,10.0,West,9.2,-,N/A,,Clear,260,2013-11-18 01:35:00
7:55 PM,34.0,29.8,85,29.98,10.0,West,10.4,-,N/A,,Clear,280,2013-11-18 01:55:00
8:15 PM,34.7,28.9,79,29.99,10.0,West,10.4,-,N/A,,Clear,280,2013-11-18 02:15:00
8:35 PM,35.6,28.0,74,30.00,10.0,WNW,11.5,-,N/A,,Clear,290,2013-11-18 02:35:00
8:55 PM,34.5,27.1,74,30.01,10.0,West,9.2,-,N/A,,Clear,270,2013-11-18 02:55:00
9:15 PM,32.7,26.6,78,30.02,10.0,WSW,8.1,-,N/A,,Clear,250,2013-11-18 03:15:00
9:35 PM,32.0,25.7,78,30.02,10.0,WSW,8.1,-,N/A,,Clear,250,2013-11-18 03:35:00
9:55 PM,30.9,25.0,79,30.02,10.0,WSW,8.1,-,N/A,,Clear,250,2013-11-18 03:55:00
10:15 PM,29.8,23.9,79,30.03,10.0,West,8.1,-,N/A,,Clear,260,2013-11-18 04:15:00
10:35 PM,29.3,23.4,78,30.03,10.0,West,10.4,-,N/A,,Clear,260,2013-11-18 04:35:00
10:55 PM,30.0,23.2,76,30.02,10.0,West,8.1,-,N/A,,Clear,280,2013-11-18 04:55:00
11:15 PM,30.0,23.0,75,30.03,10.0,West,5.8,-,N/A,,Clear,270,2013-11-18 05:15:00
11:35 PM,28.9,22.6,77,30.04,10.0,WSW,5.8,-,N/A,,Clear,250,2013-11-18 05:35:00
11:55 PM,28.4,22.1,77,30.04,10.0,West,3.5,-,N/A,,Clear,270,2013-11-18 05:55:00